ES0THZ-13 Weather Reports


time (UTC)temp
F
wind
direction
speed
knots
gust
knots
rain 1hr
in
rain 24hr
in
rain mn
in
humidity
%
barometer
mb
20260906050416 56 315 0.0 0.0 0.00 0.00 0.00 86 1002.5
20260906044611 55 270 0.0 0.0 0.00 0.00 0.00 86 1002.8
20260906042916 54 292 0.0 0.0 0.00 0.00 0.00 87 1001.5
20260906041231 53 337 0.0 0.0 0.00 0.00 0.00 88 1000.4
20260906035358 52 315 6.1 8.7 0.00 0.00 0.00 89 1002.0
20260906033556 52 315 0.0 0.0 0.00 0.00 0.00 89 999.8
20260906031631 52 270 0.0 0.0 0.00 0.00 0.00 89 1000.5
20260906025929 53 292 0.0 0.0 0.00 0.00 0.00 89 999.7
20260906024046 54 292 0.0 8.7 0.00 0.00 0.00 89 1000.6
20260906022316 54 292 0.0 0.0 0.00 0.00 0.00 89 999.3
20260906020611 54 270 0.0 0.0 0.00 0.00 0.00 89 999.7
20260906014718 54 270 0.0 16.5 0.00 0.00 0.00 89 1000.1
20260906012841 53 270 0.0 0.0 0.00 0.00 0.00 88 998.4
20260906011208 54 270 0.0 0.0 0.00 0.00 0.00 88 998.9
20260906005301 53 270 0.0 0.0 0.00 0.00 0.00 88 998.1
20260906003416 54 270 0.0 0.0 0.00 0.00 0.00 88 998.8
20260906001721 54 270 0.0 0.0 0.00 0.00 0.00 88 997.7
20260906000011 54 247 0.0 0.0 0.00 0.00 0.00 88 998.2
20260905234111 53 225 0.0 0.0 0.00 0.00 0.00 88 998.0
20260905232411 52 247 0.0 0.0 0.00 0.00 0.00 87 998.2
20260905230658 53 225 0.0 0.0 0.00 0.00 0.00 87 997.3
20260905224806 53 202 0.0 0.0 0.00 0.00 0.00 87 998.1
20260905223046 53 202 0.0 0.0 0.00 0.00 0.00 87 996.7
20260905221311 54 247 0.0 0.0 0.00 0.00 0.00 86 998.0
20260905215526 54 270 0.0 0.0 0.00 0.00 0.00 86 998.2
20260905213536 53 270 0.0 0.0 0.00 0.00 0.00 86 996.6
20260905211551 56 292 0.0 13.9 0.00 0.00 0.00 85 997.3
20260905205758 57 225 0.0 0.0 0.00 0.00 0.00 85 995.5
20260905204018 56 225 0.0 0.0 0.00 0.00 0.00 85 996.7
20260905202306 56 247 0.0 0.0 0.00 0.00 0.00 85 997.8
20260905200634 56 247 0.0 0.0 0.00 0.00 0.00 84 997.4
20260905194946 56 225 0.0 0.0 0.00 0.00 0.00 84 996.9
20260905193248 57 225 0.0 0.0 0.00 0.00 0.00 84 996.5
20260905191436 58 270 0.0 0.0 0.00 0.00 0.00 83 997.0
20260905185558 58 270 0.0 0.0 0.00 0.00 0.00 83 997.4
20260905183806 58 270 0.0 0.0 0.00 0.00 0.00 83 997.0
20260905181951 58 292 0.0 0.0 0.00 0.00 0.00 83 996.5
20260905180116 58 247 0.0 0.0 0.00 0.00 0.00 83 996.5
20260905174306 59 292 0.0 0.0 0.00 0.00 0.00 82 995.8
20260905172531 58 292 0.0 0.0 0.00 0.00 0.00 82 996.0
20260905170658 59 315 0.0 0.0 0.00 0.00 0.00 82 996.0
20260905164836 60 270 0.0 0.0 0.00 0.00 0.00 81 996.7
20260905162947 60 247 0.0 0.0 0.00 0.00 0.00 81 995.5
20260905161146 61 292 0.0 0.0 0.00 0.00 0.00 80 994.8
20260905155231 61 270 0.0 0.0 0.00 0.00 0.00 80 994.6
20260905153601 62 315 0.0 19.1 0.00 0.00 0.00 80 994.4
20260905151841 62 270 0.0 0.0 0.00 0.00 0.00 79 995.2
20260905145921 64 315 0.0 0.0 0.00 0.00 0.00 79 994.8
20260905144106 63 292 0.0 8.7 0.00 0.00 0.00 79 993.6
20260905142306 63 292 0.0 15.6 0.00 0.00 0.00 78 993.8
20260905140511 64 270 12.2 15.6 0.00 0.00 0.00 78 994.3
20260905134706 64 315 0.0 0.0 0.00 0.00 0.00 78 993.3
20260905132816 68 0 0.0 0.0 0.00 0.00 0.00 78 992.9
20260905131056 64 337 0.0 0.0 0.00 0.00 0.00 79 993.3
20260905125256 64 292 0.0 0.0 0.00 0.00 0.00 80 993.0
20260905123506 64 337 0.0 0.0 0.00 0.00 0.00 81 992.2
20260905121741 62 270 0.0 0.0 0.00 0.00 0.00 81 992.3
20260905115923 62 270 0.0 0.0 0.00 0.00 0.00 81 991.2
20260905114031 67 45 0.0 0.0 0.00 0.00 0.00 80 991.5
20260905112206 64 67 0.0 0.0 0.00 0.00 0.00 80 991.3
20260905110246 63 337 0.0 0.0 0.00 0.00 0.00 80 991.0
20260905104451 73 337 0.0 0.0 0.00 0.00 0.00 76 990.2
20260905102621 70 270 0.0 0.0 0.00 0.00 0.00 79 991.0
20260905100751 73 270 0.0 0.0 0.00 0.00 0.00 78 991.4
20260905094931 69 22 0.0 0.0 0.00 0.00 0.00 80 991.0
20260905093201 71 112 0.0 0.0 0.00 0.00 0.00 81 991.3
20260905091401 66 22 0.0 5.2 0.00 0.00 0.00 82 990.8
20260905085501 64 337 7.8 11.3 0.00 0.00 0.00 84 989.6
20260905083616 64 45 5.2 7.0 0.00 0.00 0.00 84 989.3
20260905081726 62 0 0.0 9.6 0.00 0.00 0.00 85 988.9
20260905080051 60 0 0.0 0.0 0.00 0.00 0.00 86 990.6
20260905074236 59 0 0.0 0.0 0.00 0.00 0.00 86 990.3
20260905072446 65 247 0.0 0.0 0.00 0.00 0.00 85 989.4
20260905070656 67 67 0.0 0.0 0.00 0.00 0.00 85 988.3
20260905064836 64 67 0.0 5.2 0.00 0.00 0.00 86 989.3
20260905062921 63 67 0.0 0.0 0.00 0.00 0.00 87 988.7
20260905061221 62 67 0.0 0.0 0.00 0.00 0.00 88 987.7
20260905055426 62 67 0.0 0.0 0.00 0.00 0.00 87 988.5
20260905053516 62 67 0.0 0.0 0.00 0.00 0.00 86 988.6